Location: *
(35.2348°S, 91.3916°E)
Time: 17:41:30
(UTC+00:00)

Cosmos 405 Rocket - Pass Details

Date: 23 October 2019
Orbit: 490 x 555 km, 81.3° (Epoch: 17 November)

Event Time Altitude Azimuth Distance (km) Brightness Sun altitude
Exits shadow 20:40:39 41° 153° (SSE) 759 3.9 -26.5°
Drops below altitude 10° 20:43:15 10° 166° (SSE) 1,738 6.0 -26.1°
Sets 20:45:23 0° 168° (SSE) 2,624 7.0 -25.7°
